TimePDT,TemperatureF,Dew PointF,Humidity,Sea Level PressureIn,VisibilityMPH,Wind Direction,Wind SpeedMPH,Gust SpeedMPH,PrecipitationIn,Events,Conditions,WindDirDegrees,DateUTC
12:00 AM,32.0,17.6,55,30.35,15.0,NNW,6.9,-,N/A,,Scattered Clouds,330,2013-03-24 07:00:00
1:00 AM,30.2,15.8,55,30.36,15.0,NNW,9.2,-,N/A,,Scattered Clouds,340,2013-03-24 08:00:00
2:00 AM,28.4,17.6,64,30.38,15.0,North,6.9,-,N/A,,Scattered Clouds,360,2013-03-24 09:00:00
3:00 AM,26.6,15.8,64,30.38,15.0,North,6.9,-,N/A,,Scattered Clouds,360,2013-03-24 10:00:00
4:00 AM,26.6,17.6,69,30.39,15.0,North,5.8,-,N/A,,Scattered Clouds,10,2013-03-24 11:00:00
5:00 AM,25,16,56,30.40,15,North,4.6,,,,Partly Cloudy,10,2013-03-24 12:00:00
5:00 AM,24.8,15.8,69,30.39,15.0,North,5.8,-,N/A,,Scattered Clouds,10,2013-03-24 12:00:00
6:00 AM,23.0,15.8,74,30.40,15.0,NNE,3.5,-,N/A,,Clear,20,2013-03-24 13:00:00
7:00 AM,23.0,15.8,74,30.42,15.0,North,3.5,-,N/A,,Clear,350,2013-03-24 14:00:00
8:00 AM,28.4,17.6,64,30.42,15.0,North,5.8,-,N/A,,Clear,360,2013-03-24 15:00:00
9:00 AM,33.8,19.4,56,30.41,15.0,North,8.1,-,N/A,,Clear,10,2013-03-24 16:00:00
10:00 AM,35.6,19.4,52,30.41,15.0,North,6.9,-,N/A,,Clear,360,2013-03-24 17:00:00
11:00 AM,36,19,37,30.40,15,NNW,2.3,,,,Scattered Clouds,340,2013-03-24 18:00:00
11:00 AM,37.4,19.4,48,30.40,15.0,Variable,2.3,-,N/A,,Partly Cloudy,0,2013-03-24 18:00:00
12:00 PM,41.0,19.4,42,30.37,15.0,Calm,Calm,-,N/A,,Clear,0,2013-03-24 19:00:00
1:00 PM,42.8,19.4,39,30.33,15.0,SSE,5.8,-,N/A,,Clear,160,2013-03-24 20:00:00
2:00 PM,50.0,19.4,30,30.29,15.0,South,17.3,25.3,N/A,,Clear,190,2013-03-24 21:00:00
3:00 PM,50.0,19.4,30,30.27,15.0,South,13.8,21.9,N/A,,Partly Cloudy,180,2013-03-24 22:00:00
4:00 PM,50.0,19.4,30,30.24,15.0,South,11.5,18.4,N/A,,Partly Cloudy,170,2013-03-24 23:00:00
5:00 PM,50,21,20,30.22,15,South,12.7,,,,Clear,170,2013-03-25 00:00:00
5:00 PM,50.0,21.2,32,30.22,15.0,South,12.7,-,N/A,,Partly Cloudy,170,2013-03-25 00:00:00
6:00 PM,48.2,23.0,37,30.20,15.0,South,13.8,-,N/A,,Partly Cloudy,180,2013-03-25 01:00:00
7:00 PM,42.8,23.0,46,30.20,15.0,South,12.7,-,N/A,,Partly Cloudy,190,2013-03-25 02:00:00
8:00 PM,41.0,23.0,49,30.21,15.0,South,10.4,-,N/A,,Partly Cloudy,190,2013-03-25 03:00:00
9:00 PM,41.0,24.8,53,30.21,15.0,SSE,6.9,-,N/A,,Clear,150,2013-03-25 04:00:00
10:00 PM,41.0,23.0,49,30.22,15.0,SE,5.8,-,N/A,,Clear,140,2013-03-25 05:00:00
11:00 PM,38,20,35,30.22,15,Calm,Calm,,,,,,2013-03-25 06:00:00
11:00 PM,37.4,19.4,48,30.22,15.0,Calm,Calm,-,N/A,,Clear,0,2013-03-25 06:00:00